Погода в Коммунистическом

Россия / Ханты-Мансийский автономный округ - Югра     61°40′41″N   64°28′29″E
темп.,
°C
ветер,
м/с
пор.,
м/с
влажн.,
%
обл.,
%
осадки,
мм/ч
давл.,
гПа
погр.,
м
16 мая, вс
вс1623:00+14ссз119422 3.1 101316
02:00+12с2592100 0.9 1014159
05:00+12ююв229560 3.1 101496
08:00+14ссв2281100 0.0 1015519
11:00+18зсз226252 0.0 1016987
14:00+20з234983 0.0 10151359
17:00+21юз344675 0.0 10131593
20:00+16юз2489100 2.3 1012140
17 мая, пн
пн1723:00+14ю2697100 12.3 1011189
02:00+14з2597100 0.7 1009165
05:00+14зюз411932 1.5 1010424
08:00+17з37785 0.0 1009477
11:00+21зсз475714 0.0 10091302
14:00+24сз594362 0.8 10082355
17:00+20ссз38605 1.4 1008496
20:00+16сз2483100 3.3 1009103
18 мая, вт
вт1823:00+13ссв369298 7.0 1010277
02:00+11с3791100 0.4 1011350
05:00+9с4892100 0.5 1013550
08:00+8ссв4990100 0.0 1016627
11:00+9ссв4783100 0.1 1019900
14:00+11ссв4662100 0.0 10211399
17:00+14с364222 0.0 10211833
20:00+12ссв36500 0.0 1023388
19 мая, ср
ср1923:00+7ссв25650 0.0 1025106
02:00+5св2265100 0.0 102628
05:00+5св226590 0.0 102749
08:00+9всв2245100 0.0 1028506
11:00+13вюв1136100 0.0 10271039
14:00+16ююз123599 0.0 10261430
17:00+17юз23359 0.0 10241689
20:00+15ююз265171 0.0 1022156
20 мая, чт
чт2023:00+11ююз4116459 0.0 1022296
02:00+11юз5146668 0.0 1020381
05:00+11юз4117229 0.0 1019243
08:00+18зюз511515 0.0 1017470
11:00+24з693917 0.0 10151076
14:00+27з69325 0.0 10142229
17:00+28зсз57300 0.0 10132469
20:00+24з49410 0.0 1013355